Precipitable_Water
0.20 0.19 0.18 0.15 0.15 0.17 0.17 0.19 0.15 0.16 0.16 0.18 0.25 0.24 0.25 0.29 0.29 0.30 0.29 0.30 0.28 0.31 0.36 0.40 0.45 0.46 0.45 0.44 0.43 0.41 0.40 0.40 0.41 0.49 0.59 0.81 0.85 0.93 1.02 1.05 1.02 1.03 1.08 1.12
0.14 0.20 0.20 0.16 0.17 0.17 0.17 0.20 0.21 0.20 0.17 0.20 0.27 0.24 0.25 0.30 0.29 0.28 0.25 0.25 0.27 0.31 0.34 0.43 0.47 0.48 0.48 0.46 0.46 0.46 0.44 0.43 0.46 0.52 0.65 0.74 0.90 0.93 1.05 1.06 1.08 1.07 1.07 1.07
0.13 0.20 0.18 0.15 0.18 0.18 0.17 0.20 0.19 0.15 0.17 0.20 0.20 0.24 0.32 0.32 0.30 0.29 0.24 0.27 0.28 0.32 0.36 0.45 0.48 0.50 0.48 0.49 0.51 0.51 0.48 0.49 0.51 0.57 0.66 0.79 0.87 0.90 1.01 1.06 1.07 1.07 1.03 0.96
0.17 0.19 0.12 0.21 0.24 0.17 0.12 0.14 0.20 0.19 0.19 0.21 0.24 0.28 0.34 0.36 0.38 0.33 0.28 0.31 0.32 0.33 0.36 0.41 0.50 0.51 0.50 0.52 0.52 0.52 0.54 0.52 0.55 0.61 0.72 0.81 0.82 0.86 0.92 0.99 1.01 1.00 0.96 0.89
0.14 0.14 0.16 0.19 0.20 0.14 0.10 0.07 0.16 0.17 0.18 0.21 0.22 0.22 0.30 0.40 0.31 0.20 0.20 0.25 0.25 0.30 0.35 0.43 0.49 0.53 0.52 0.51 0.52 0.50 0.52 0.53 0.59 0.66 0.73 0.78 0.79 0.84 0.90 0.93 0.91 0.91 0.91 0.87
0.16 0.13 0.09 0.17 0.21 0.21 0.19 0.15 0.26 0.18 0.12 0.11 0.13 0.07 0.15 0.15 0.16 0.16 0.18 0.22 0.25 0.33 0.32 0.36 0.47 0.53 0.52 0.52 0.52 0.53 0.55 0.58 0.67 0.72 0.70 0.73 0.76 0.90 0.91 0.87 0.82 0.82 0.80 0.78
0.15 0.15 0.14 0.22 0.19 0.14 0.08 0.16 0.21 0.17 0.18 0.18 0.15 0.14 0.14 0.18 0.14 0.15 0.19 0.21 0.27 0.29 0.28 0.32 0.42 0.54 0.51 0.54 0.54 0.58 0.62 0.63 0.60 0.67 0.76 0.79 0.78 0.77 0.77 0.74 0.70 0.65 0.62 0.61
0.16 0.11 0.06 0.18 0.11 0.07 0.14 0.18 0.15 0.18 0.20 0.19 0.20 0.20 0.19 0.18 0.16 0.17 0.18 0.21 0.26 0.25 0.24 0.32 0.38 0.50 0.55 0.55 0.60 0.62 0.65 0.66 0.71 0.74 0.73 0.71 0.74 0.69 0.66 0.63 0.59 0.57 0.56 0.55
0.14 0.11 0.21 0.18 0.13 0.14 0.14 0.13 0.17 0.19 0.19 0.18 0.16 0.15 0.16 0.16 0.16 0.18 0.19 0.21 0.24 0.20 0.23 0.30 0.38 0.43 0.51 0.58 0.60 0.62 0.65 0.62 0.66 0.67 0.66 0.66 0.62 0.59 0.57 0.56 0.53 0.49 0.48 0.46
0.17 0.14 0.14 0.19 0.21 0.17 0.18 0.16 0.20 0.21 0.19 0.19 0.16 0.15 0.14 0.14 0.14 0.14 0.13 0.14 0.18 0.20 0.20 0.22 0.30 0.39 0.44 0.49 0.53 0.55 0.56 0.58 0.60 0.60 0.60 0.60 0.58 0.56 0.52 0.49 0.48 0.47 0.45 0.42
0.18 0.18 0.19 0.19 0.17 0.18 0.17 0.19 0.20 0.22 0.20 0.20 0.19 0.17 0.15 0.15 0.14 0.14 0.14 0.14 0.16 0.18 0.20 0.20 0.21 0.23 0.31 0.37 0.40 0.36 0.35 0.38 0.43 0.43 0.42 0.49 0.51 0.51 0.50 0.52 0.53 0.50 0.48 0.47
0.14 0.22 0.21 0.17 0.19 0.19 0.18 0.18 0.20 0.21 0.21 0.22 0.21 0.20 0.18 0.18 0.16 0.16 0.15 0.15 0.15 0.16 0.17 0.17 0.18 0.18 0.20 0.23 0.25 0.27 0.26 0.27 0.30 0.30 0.32 0.27 0.22 0.22 0.32 0.36 0.32 0.26 0.20 0.17
0.20 0.24 0.20 0.22 0.20 0.19 0.18 0.19 0.20 0.21 0.23 0.23 0.23 0.21 0.20 0.19 0.18 0.15 0.17 0.16 0.15 0.15 0.16 0.18 0.18 0.17 0.18 0.19 0.20 0.21 0.23 0.25 0.26 0.27 0.26 0.26 0.27 0.23 0.16 0.18 0.17 0.15 0.14 0.13
0.25 0.23 0.19 0.18 0.17 0.19 0.17 0.19 0.21 0.22 0.23 0.23 0.23 0.23 0.21 0.21 0.20 0.17 0.18 0.17 0.15 0.15 0.15 0.17 0.18 0.17 0.18 0.18 0.18 0.18 0.18 0.19 0.21 0.22 0.22 0.22 0.21 0.21 0.22 0.22 0.19 0.17 0.18 0.17
0.21 0.25 0.21 0.19 0.19 0.18 0.17 0.18 0.19 0.19 0.20 0.20 0.22 0.21 0.20 0.18 0.18 0.19 0.20 0.20 0.19 0.17 0.17 0.15 0.15 0.17 0.20 0.19 0.19 0.19 0.19 0.20 0.21 0.19 0.21 0.21 0.22 0.21 0.21 0.21 0.20 0.20 0.21 0.20
0.25 0.23 0.22 0.20 0.17 0.18 0.17 0.17 0.17 0.18 0.19 0.19 0.21 0.21 0.21 0.20 0.19 0.19 0.21 0.19 0.18 0.19 0.22 0.16 0.14 0.16 0.17 0.20 0.20 0.21 0.17 0.17 0.21 0.22 0.22 0.22 0.22 0.22 0.21 0.22 0.22 0.23 0.22 0.20
0.23 0.22 0.22 0.20 0.19 0.17 0.17 0.19 0.18 0.18 0.19 0.20 0.20 0.22 0.22 0.21 0.20 0.19 0.20 0.21 0.20 0.20 0.21 0.22 0.21 0.19 0.16 0.17 0.20 0.22 0.23 0.20 0.18 0.22 0.21 0.20 0.21 0.21 0.21 0.23 0.23 0.23 0.24 0.24
0.30 0.28 0.27 0.25 0.23 0.21 0.19 0.18 0.19 0.19 0.19 0.20 0.21 0.22 0.21 0.20 0.19 0.19 0.20 0.21 0.22 0.23 0.23 0.23 0.24 0.24 0.21 0.19 0.18 0.20 0.20 0.21 0.19 0.20 0.20 0.19 0.21 0.20 0.21 0.21 0.21 0.22 0.23 0.25
0.34 0.29 0.29 0.29 0.27 0.25 0.24 0.21 0.21 0.21 0.21 0.21 0.21 0.21 0.21 0.21 0.20 0.20 0.21 0.21 0.21 0.21 0.23 0.26 0.26 0.25 0.24 0.22 0.22 0.21 0.21 0.21 0.19 0.17 0.18 0.19 0.17 0.16 0.20 0.20 0.21 0.21 0.22 0.23
0.39 0.40 0.37 0.33 0.29 0.28 0.27 0.26 0.24 0.23 0.23 0.22 0.22 0.21 0.20 0.20 0.21 0.21 0.21 0.19 0.20 0.22 0.26 0.28 0.29 0.29 0.29 0.25 0.23 0.23 0.24 0.24 0.24 0.24 0.25 0.24 0.23 0.24 0.24 0.24 0.24 0.23 0.24 0.25
0.41 0.44 0.44 0.42 0.39 0.37 0.30 0.30 0.28 0.24 0.24 0.24 0.23 0.21 0.21 0.21 0.22 0.21 0.20 0.18 0.20 0.24 0.25 0.27 0.30 0.30 0.31 0.29 0.27 0.26 0.24 0.26 0.28 0.29 0.29 0.30 0.30 0.30 0.30 0.31 0.32 0.32 0.33 0.33
0.36 0.37 0.41 0.44 0.44 0.41 0.40 0.33 0.31 0.29 0.27 0.25 0.25 0.24 0.23 0.22 0.21 0.21 0.22 0.20 0.22 0.24 0.26 0.27 0.29 0.29 0.30 0.30 0.29 0.29 0.29 0.29 0.31 0.32 0.32 0.32 0.32 0.32 0.33 0.34 0.35 0.37 0.39 0.40
0.36 0.34 0.33 0.35 0.40 0.43 0.43 0.41 0.35 0.33 0.30 0.29 0.26 0.26 0.24 0.23 0.23 0.20 0.18 0.23 0.24 0.25 0.26 0.28 0.31 0.31 0.30 0.30 0.31 0.31 0.31 0.32 0.32 0.33 0.33 0.35 0.35 0.36 0.37 0.38 0.39 0.41 0.41 0.41
0.32 0.34 0.34 0.33 0.35 0.36 0.40 0.46 0.44 0.37 0.34 0.34 0.33 0.29 0.27 0.24 0.24 0.25 0.23 0.23 0.23 0.25 0.27 0.28 0.30 0.33 0.34 0.34 0.32 0.32 0.34 0.34 0.35 0.35 0.36 0.38 0.40 0.41 0.42 0.42 0.43 0.44 0.44 0.44
0.28 0.30 0.34 0.37 0.35 0.33 0.38 0.44 0.50 0.47 0.38 0.34 0.33 0.33 0.30 0.29 0.25 0.24 0.25 0.23 0.22 0.23 0.26 0.28 0.29 0.31 0.34 0.36 0.36 0.35 0.36 0.37 0.37 0.38 0.38 0.39 0.40 0.42 0.43 0.44 0.45 0.45 0.46 0.46
0.19 0.20 0.23 0.25 0.31 0.33 0.31 0.37 0.41 0.48 0.48 0.38 0.35 0.33 0.32 0.31 0.30 0.28 0.27 0.26 0.24 0.24 0.25 0.29 0.29 0.30 0.33 0.36 0.37 0.38 0.38 0.40 0.40 0.41 0.41 0.42 0.42 0.43 0.43 0.44 0.45 0.45 0.46 0.47
0.25 0.25 0.23 0.21 0.20 0.24 0.32 0.40 0.40 0.41 0.47 0.47 0.38 0.36 0.34 0.33 0.32 0.30 0.28 0.27 0.27 0.29 0.31 0.31 0.32 0.32 0.33 0.34 0.36 0.39 0.40 0.42 0.42 0.42 0.42 0.42 0.43 0.44 0.45 0.46 0.47 0.48 0.49 0.49
Wind_Speed
18 21 23 23 21 19 17 16 16 16 19 19 16 18 19 19 19 20 20 21 22 21 22 23 24 26 29 32 35 41 45 47 46 46 45 42 42 40 37 34 32 29 27 26
20 22 20 22 20 19 18 17 17 17 17 15 16 19 20 19 20 19 21 21 21 21 21 22 22 23 24 24 27 32 39 43 44 44 43 41 39 37 35 33 32 29 26 24
20 19 25 18 12 13 15 13 11 13 15 15 18 19 18 19 18 18 21 21 21 21 20 20 20 21 19 18 19 22 29 36 40 41 41 40 38 37 34 30 28 27 26 24
19 23 13 10 10 7 9 13 11 12 14 15 16 17 17 16 14 18 19 19 19 20 20 19 19 20 15 12 11 13 22 29 33 38 38 36 35 35 33 29 26 24 23 22
16 17 16 10 4 5 7 10 9 10 12 13 15 17 13 11 15 16 16 17 18 19 17 17 15 14 13 7 5 5 12 22 28 31 32 32 33 30 31 29 26 23 23 21
17 15 11 8 6 4 5 6 8 9 11 11 12 12 10 13 13 14 15 15 16 16 16 15 12 12 12 7 7 7 10 18 22 23 28 30 27 21 26 24 23 22 21 21
13 12 10 9 7 6 5 7 8 7 7 9 11 11 11 11 12 12 13 14 15 16 15 14 12 10 12 12 10 8 11 16 18 21 21 25 24 24 22 20 19 18 18 18
11 11 11 10 9 7 8 7 6 8 8 9 9 12 13 12 12 12 12 15 15 17 17 15 14 11 11 14 12 10 12 16 16 17 21 22 20 20 19 18 17 15 15 15
9 8 10 7 8 6 6 6 6 7 8 9 11 12 12 13 13 13 12 13 16 18 17 17 15 12 10 11 14 17 18 17 15 16 17 18 17 15 14 13 13 12 11 9
11 10 9 7 6 4 4 3 5 6 6 8 9 11 12 13 14 15 16 15 14 16 17 17 17 16 13 13 14 14 16 16 15 14 13 13 13 12 11 10 9 8 7 6
12 14 11 9 6 4 4 3 3 4 5 6 7 9 10 11 13 13 14 15 16 14 14 16 17 18 17 16 13 13 13 13 13 14 14 13 11 10 10 9 8 7 4 2
9 10 9 9 6 5 4 4 3 3 4 4 5 6 8 9 10 11 13 14 14 15 16 16 16 15 15 16 16 16 16 15 14 14 14 14 14 13 12 11 10 9 8 8
16 12 12 11 9 7 6 5 4 4 4 4 4 4 5 6 7 8 9 11 12 13 13 13 14 14 14 14 15 15 15 15 14 14 14 14 14 14 13 13 13 12 11 10
17 17 16 13 11 10 9 8 7 7 6 5 5 4 4 5 5 6 7 7 8 9 10 10 11 11 11 12 13 13 14 14 15 15 15 15 15 15 14 13 12 10 9 7
18 18 18 16 15 13 13 11 11 10 9 8 7 7 6 6 6 6 6 6 5 5 5 5 7 8 8 9 10 11 11 12 13 13 13 13 12 12 11 10 9 7 6 4
22 20 20 19 18 17 16 16 15 14 13 12 11 10 9 9 8 8 7 7 6 5 4 2 2 2 4 5 6 7 8 8 8 8 9 8 7 7 7 5 4 3 2 2
22 22 21 22 21 20 20 19 19 18 17 16 15 13 12 12 11 11 10 9 8 8 7 5 4 3 2 3 3 3 4 4 4 4 4 4 3 3 3 2 0 1 2 3
23 23 23 24 24 24 23 22 22 21 21 19 18 17 16 15 14 13 12 11 10 10 9 9 8 7 7 7 7 6 6 6 5 5 4 4 4 3 4 4 5 6 7 8
20 21 22 23 25 26 27 26 25 25 24 23 22 20 19 18 17 16 15 13 12 12 11 11 11 11 10 10 10 10 10 10 10 9 9 8 8 8 8 8 9 10 10 11
22 22 21 22 24 27 28 29 29 28 27 26 25 24 23 21 20 19 17 16 15 14 13 12 12 13 13 13 13 13 12 12 11 11 11 11 10 11 11 12 12 12 13 13
27 27 26 26 25 26 27 29 31 31 30 30 29 28 26 24 23 22 20 19 18 16 15 14 13 13 13 13 14 14 14 14 13 13 13 13 13 13 13 14 14 14 15 16
32 31 31 31 30 29 29 30 32 33 34 33 32 30 29 28 26 25 24 22 20 19 18 18 17 17 16 16 16 16 16 16 16 16 15 15 15 15 16 16 17 17 18 19
35 36 36 35 34 35 33 32 32 33 34 35 35 34 34 32 30 28 26 25 24 22 21 20 20 19 20 20 19 19 19 19 19 19 19 18 18 19 19 19 20 21 21 22
44 42 42 41 39 37 36 35 34 34 35 36 38 38 36 34 34 32 30 28 27 26 25 24 23 22 22 22 23 23 22 22 22 22 22 22 22 22 23 23 24 24 24 25
50 48 45 43 42 40 38 37 37 37 36 36 37 39 39 38 37 34 34 32 30 29 28 28 27 26 26 26 26 26 26 25 25 25 25 26 26 26 26 26 26 26 27 27
57 54 51 50 48 46 44 42 40 38 38 36 36 37 38 39 39 38 36 35 34 32 31 30 30 29 29 28 28 28 28 28 28 28 27 28 28 28 28 28 28 29 29 29
50 50 50 50 50 48 44 42 41 40 38 38 38 37 38 39 39 39 39 38 37 35 34 33 32 32 31 31 31 31 31 30 30 30 29 29 29 29 30 30 30 31 31 32
Wind_Direction
315 308 301 299 295 293 286 286 291 305 303 308 316 315 319 317 318 319 317 314 312 308 308 303 299 293 282 268 259 247 240 236 234 232 229 228 226 227 228 228 228 233 238 241
313 308 301 296 290 285 282 284 287 300 301 308 314 316 315 316 319 321 322 320 319 318 315 310 307 305 295 275 262 247 236 231 229 226 223 221 220 218 222 223 225 230 233 235
315 317 314 301 297 291 282 286 289 294 302 312 316 318 316 319 318 321 322 321 323 323 323 322 319 315 309 290 265 247 231 226 222 218 216 216 215 215 214 216 221 224 229 232
324 324 315 313 301 294 294 298 288 297 300 306 310 316 319 322 329 326 329 329 328 326 326 326 326 328 323 311 278 248 223 213 211 206 208 207 208 210 213 215 216 219 226 230
352 344 323 323 328 313 317 316 302 301 313 316 317 319 322 331 332 332 334 334 336 336 335 336 340 346 346 334 344 223 200 197 192 196 197 201 203 207 211 212 214 220 227 234
356 359 14 22 9 356 349 329 5 343 336 334 336 333 334 329 336 339 344 348 351 353 354 355 357 2 17 31 50 120 152 169 176 175 193 198 197 190 192 203 212 222 230 241
357 5 3 18 7 10 356 6 5 21 29 28 21 16 8 1 358 359 3 5 9 11 12 14 19 26 33 47 70 94 120 149 167 178 172 174 183 192 196 201 209 219 230 243
13 17 18 40 43 41 43 38 29 30 29 34 27 23 25 25 20 18 19 22 27 25 27 29 36 44 54 60 71 90 110 133 140 157 175 182 181 186 192 201 209 223 236 249
1 1 10 12 19 20 26 27 28 31 26 29 27 27 34 35 30 28 30 31 38 35 36 38 42 52 61 71 77 84 107 123 120 127 133 145 159 173 185 197 205 217 225 240
344 355 337 323 335 339 360 360 12 18 23 26 26 27 29 31 32 33 35 35 36 37 41 46 51 57 70 78 86 95 104 116 120 125 131 141 153 160 167 175 181 190 205 233
307 313 314 316 316 309 307 331 338 355 8 16 23 25 31 33 35 36 37 38 39 43 45 50 55 61 68 76 86 94 101 111 117 119 122 130 136 145 153 157 163 170 175 201
306 320 312 327 314 284 279 283 299 319 339 357 10 18 27 30 36 37 38 39 41 44 48 52 56 62 69 75 82 89 96 102 107 115 123 123 123 124 123 131 131 131 122 116
279 293 308 293 311 274 268 270 273 282 297 322 339 356 9 16 25 29 30 35 40 43 47 51 57 63 69 77 84 90 93 97 103 108 112 114 118 119 119 118 116 116 112 106
275 277 282 284 285 274 266 265 266 269 274 285 301 317 331 344 4 3 10 20 28 35 43 51 57 63 70 78 85 91 94 96 99 103 107 108 109 111 113 115 116 114 107 99
289 272 271 279 271 268 261 261 261 263 268 271 277 286 295 304 315 328 337 346 356 6 20 38 53 63 74 85 92 95 98 102 104 105 108 109 110 109 110 111 109 106 100 85
289 278 270 266 272 265 258 258 258 260 262 265 268 271 277 286 295 302 308 310 313 318 325 335 357 58 84 103 107 107 105 112 114 114 114 112 111 111 111 111 110 106 82 36
292 278 271 268 265 265 260 259 260 260 261 261 263 266 270 276 282 288 291 291 291 288 286 283 271 249 223 197 180 164 154 146 151 142 143 139 140 144 146 149 174 317 317 314
293 287 276 269 265 263 263 261 259 259 259 261 261 262 265 269 274 279 282 283 281 278 274 268 262 252 242 235 229 224 220 219 220 225 226 229 239 245 256 271 283 291 296 298
308 299 287 279 271 265 263 261 260 259 259 258 258 259 262 265 267 270 274 275 274 273 270 266 258 250 247 243 240 240 240 242 244 247 250 255 261 264 270 276 281 285 289 292
308 304 301 292 283 274 267 261 260 258 257 257 257 257 259 260 261 263 264 267 267 269 267 263 256 249 248 246 242 243 245 246 248 251 253 256 260 265 270 274 279 284 288 291
305 301 299 293 290 285 275 267 260 257 256 255 255 256 256 258 257 257 259 262 263 262 260 259 254 251 249 245 242 243 244 247 249 251 254 257 262 266 271 275 279 282 285 288
300 298 297 292 289 286 282 274 264 258 255 253 253 254 254 254 255 255 255 257 259 258 256 254 252 250 250 245 243 244 245 247 250 252 256 259 263 267 270 274 278 281 285 288
298 294 292 290 288 283 282 277 270 261 256 253 251 250 250 252 252 253 255 253 253 255 253 253 253 250 248 247 246 246 248 250 252 255 258 261 265 268 271 274 278 281 284 286
292 292 289 285 284 283 279 275 272 264 260 255 251 249 249 249 250 251 252 252 252 251 251 252 252 251 249 249 248 249 250 252 255 257 259 262 266 269 272 275 278 281 283 285
287 285 283 283 279 276 276 276 271 264 262 257 252 248 247 248 249 250 250 250 250 251 251 251 251 251 251 251 251 251 253 255 257 260 262 264 267 270 273 275 277 280 283 285
284 281 280 277 275 274 272 270 267 265 259 257 254 250 247 247 247 248 249 248 248 249 250 251 251 251 252 252 253 253 255 257 259 262 264 267 269 270 272 274 277 279 282 285
285 282 279 274 269 268 266 263 262 259 258 255 254 251 248 247 247 247 247 248 249 249 250 250 251 252 253 254 254 256 257 258 260 262 265 267 269 271 272 274 277 280 282 285